TimeEST,TemperatureF,Dew PointF,Humidity,Sea Level PressureIn,VisibilityMPH,Wind Direction,Wind SpeedMPH,Gust SpeedMPH,PrecipitationIn,Events,Conditions,WindDirDegrees,DateUTC
12:53 AM,57.9,55.9,93,30.10,1.8,SW,5.8,-,N/A,,Overcast,230,2012-12-03 05:53:00
1:37 AM,57.2,55.4,94,30.10,0.8,SSW,4.6,-,N/A,,Overcast,200,2012-12-03 06:37:00
1:48 AM,57.2,55.4,94,30.10,1.2,South,3.5,-,N/A,,Overcast,190,2012-12-03 06:48:00
1:53 AM,57.0,55.9,96,30.09,1.5,South,3.5,-,N/A,,Overcast,190,2012-12-03 06:53:00
2:13 AM,57.2,55.4,94,30.10,0.5,South,4.6,-,N/A,Fog,Fog,190,2012-12-03 07:13:00
2:53 AM,57.0,55.9,96,30.10,0.8,SSW,3.5,-,N/A,,Mist,200,2012-12-03 07:53:00
3:53 AM,57.9,55.9,93,30.09,0.5,South,3.5,-,N/A,Fog,Fog,180,2012-12-03 08:53:00
4:53 AM,57.9,55.9,93,30.09,0.5,South,5.8,-,0.00,Fog,Fog,180,2012-12-03 09:53:00
5:11 AM,57.2,57.2,100,30.10,1.0,South,4.6,-,N/A,,Mist,180,2012-12-03 10:11:00
5:53 AM,57.9,57.0,97,30.09,1.2,South,3.5,-,0.00,,Overcast,190,2012-12-03 10:53:00
6:53 AM,59.0,57.0,93,30.09,2.0,South,5.8,-,0.01,Rain,Light Rain,180,2012-12-03 11:53:00
7:53 AM,59.0,57.0,93,30.09,2.0,South,6.9,-,0.00,,Overcast,180,2012-12-03 12:53:00
8:08 AM,59.0,57.2,94,30.10,1.5,South,6.9,-,N/A,,Overcast,190,2012-12-03 13:08:00
8:53 AM,59.0,57.0,93,30.09,1.8,South,9.2,-,N/A,,Overcast,190,2012-12-03 13:53:00
9:19 AM,60.8,57.2,88,30.10,2.0,SSW,8.1,-,N/A,,Overcast,200,2012-12-03 14:19:00
9:53 AM,60.1,57.0,90,30.08,3.0,South,9.2,-,N/A,,Overcast,180,2012-12-03 14:53:00
10:53 AM,61.0,57.9,90,30.08,5.0,SSW,10.4,-,N/A,,Overcast,200,2012-12-03 15:53:00
11:25 AM,62.6,57.2,82,30.08,6.0,SSW,12.7,17.3,N/A,,Haze,200,2012-12-03 16:25:00
11:53 AM,62.1,57.0,84,30.05,8.0,SSW,9.2,-,N/A,,Overcast,200,2012-12-03 16:53:00
12:53 PM,63.0,57.0,81,30.03,8.0,SSW,10.4,-,N/A,,Overcast,200,2012-12-03 17:53:00
1:45 PM,64.4,57.2,77,30.03,9.0,SSW,10.4,-,N/A,,Overcast,200,2012-12-03 18:45:00
1:53 PM,64.9,57.9,78,30.01,10.0,SSW,12.7,-,N/A,,Overcast,200,2012-12-03 18:53:00
2:53 PM,66.0,57.9,75,29.99,10.0,SSW,12.7,-,N/A,,Overcast,200,2012-12-03 19:53:00
3:53 PM,68.0,57.9,70,29.98,10.0,SSW,12.7,20.7,N/A,,Mostly Cloudy,200,2012-12-03 20:53:00
4:53 PM,66.0,57.0,73,29.99,10.0,SSW,11.5,18.4,N/A,,Clear,200,2012-12-03 21:53:00
5:53 PM,64.9,55.9,73,29.99,10.0,South,12.7,19.6,N/A,,Clear,190,2012-12-03 22:53:00
6:53 PM,64.0,55.0,73,29.99,10.0,South,13.8,19.6,N/A,,Clear,190,2012-12-03 23:53:00
7:53 PM,64.0,54.0,70,29.99,10.0,South,12.7,20.7,N/A,,Clear,190,2012-12-04 00:53:00
8:53 PM,63.0,54.0,72,29.99,10.0,South,13.8,21.9,N/A,,Clear,190,2012-12-04 01:53:00
9:53 PM,63.0,53.1,70,30.00,10.0,SSW,9.2,19.6,N/A,,Mostly Cloudy,200,2012-12-04 02:53:00
10:53 PM,63.0,52.0,67,30.00,10.0,SSW,11.5,19.6,N/A,,Mostly Cloudy,210,2012-12-04 03:53:00
11:53 PM,62.1,51.1,67,30.00,10.0,SSW,12.7,23.0,N/A,,Partly Cloudy,200,2012-12-04 04:53:00